GW1950 Weather Reports


time (UTC)temp
F
wind
direction
speed
knots
gust
knots
rain 1hr
in
rain 24hr
in
rain mn
in
humidity
%
barometer
mb
20260906191646 74 300 1.7 1.7 0.00 0.00 0.00 81 1020.0
20260906191146 75 167 0.0 0.9 0.00 0.00 0.00 78 1020.3
20260906190640 75 156 0.0 0.9 0.00 0.00 0.00 80 1020.3
20260906190135 74 333 0.9 0.9 0.00 0.00 0.00 81 1020.5
20260906185634 73 127 0.0 0.0 0.00 0.00 0.00 81 1020.3
20260906185133 74 156 0.9 0.9 0.00 0.00 0.00 79 1020.6
20260906184628 73 167 0.0 0.0 0.00 0.00 0.00 83 1020.5
20260906184124 74 99 0.9 0.9 0.00 0.00 0.00 82 1020.6
20260906183620 74 100 0.0 0.9 0.00 0.00 0.00 80 1021.0
20260906183115 75 235 1.7 1.7 0.00 0.00 0.00 77 1020.8
20260906182610 75 282 0.9 1.7 0.00 0.00 0.00 79 1020.9
20260906182106 75 171 0.9 0.9 0.00 0.00 0.00 78 1020.8
20260906181601 73 248 0.0 0.9 0.00 0.00 0.00 82 1020.8
20260906181057 74 114 0.0 0.9 0.00 0.00 0.00 82 1020.9
20260906180557 75 224 0.0 0.0 0.00 0.00 0.00 82 1021.1
20260906180055 74 171 0.0 0.0 0.00 0.00 0.00 81 1020.9
20260906175555 74 82 0.9 0.9 0.00 0.00 0.00 83 1021.1
20260906175050 74 270 0.9 1.7 0.00 0.00 0.00 81 1021.1
20260906174548 73 171 0.0 0.0 0.00 0.00 0.00 83 1021.0
20260906174043 74 161 0.0 0.0 0.00 0.00 0.00 81 1020.9
20260906173538 75 233 1.7 1.7 0.00 0.00 0.00 80 1021.0
20260906173035 75 161 0.0 0.0 0.00 0.00 0.00 79 1021.0
20260906172529 76 231 0.9 0.9 0.00 0.00 0.00 82 1020.9
20260906172024 75 177 0.9 1.7 0.00 0.00 0.00 82 1021.2
20260906171519 75 112 0.9 0.9 0.00 0.00 0.00 81 1021.1
20260906171015 75 191 0.9 1.7 0.00 0.00 0.00 83 1020.9
20260906170511 76 168 0.0 0.0 0.00 0.00 0.00 83 1020.8
20260906170009 76 101 0.0 0.9 0.00 0.00 0.00 82 1021.0
20260906165506 75 89 0.0 0.9 0.00 0.00 0.00 81 1021.1
20260906165001 74 120 0.0 0.9 0.00 0.00 0.00 83 1020.9
20260906164500 74 92 0.9 0.9 0.00 0.00 0.00 84 1020.8
20260906163957 73 91 0.9 0.9 0.00 0.00 0.00 83 1020.9
20260906163452 73 63 0.0 0.0 0.00 0.00 0.00 84 1021.0
20260906162950 72 150 0.0 0.0 0.00 0.00 0.00 89 1021.2
20260906162449 70 77 0.9 0.9 0.00 0.00 0.00 86 1021.1
20260906161943 71 158 0.0 0.9 0.00 0.00 0.00 89 1021.3
20260906161437 73 158 0.0 0.0 0.00 0.00 0.00 85 1021.2
20260906160931 73 149 0.0 0.0 0.00 0.00 0.00 84 1021.2
20260906160430 73 261 0.9 1.7 0.00 0.00 0.00 84 1021.2
20260906155928 74 326 0.9 0.9 0.00 0.00 0.00 83 1021.2
20260906155422 74 127 0.0 0.0 0.00 0.00 0.00 85 1021.0
20260906154918 73 146 0.0 0.0 0.00 0.00 0.00 89 1021.0
20260906154413 73 140 0.9 0.9 0.00 0.00 0.00 87 1020.9
20260906153912 72 157 0.0 0.0 0.00 0.00 0.00 86 1020.9
20260906153411 72 134 0.9 0.9 0.00 0.00 0.00 87 1021.0
20260906152906 71 137 0.0 0.9 0.00 0.00 0.00 90 1020.8
20260906152401 71 147 0.0 0.0 0.00 0.00 0.00 88 1020.9
20260906151900 71 130 0.9 0.9 0.00 0.00 0.00 89 1020.8
20260906151356 69 159 0.0 0.0 0.00 0.00 0.00 91 1020.9
20260906150851 69 186 0.9 0.9 0.00 0.00 0.00 91 1021.1
20260906150346 68 191 0.0 0.9 0.00 0.00 0.00 91 1021.0
20260906145845 67 127 0.9 1.7 0.00 0.00 0.00 94 1021.1
20260906145344 67 142 0.9 0.9 0.00 0.00 0.00 96 1021.1
20260906144839 66 188 0.0 0.9 0.00 0.00 0.00 95 1021.1
20260906144334 66 124 0.0 0.0 0.00 0.00 0.00 96 1021.0
20260906143834 66 134 0.9 0.9 0.00 0.00 0.00 96 1021.3
20260906143330 66 163 0.9 0.9 0.00 0.00 0.00 94 1021.1
20260906142826 65 159 0.0 0.0 0.00 0.00 0.00 97 1021.1
20260906142321 65 148 0.0 0.0 0.00 0.00 0.00 96 1021.0
20260906141820 66 147 0.0 0.9 0.00 0.00 0.00 94 1021.4
20260906141310 64 192 0.9 0.9 0.00 0.00 0.00 96 1021.3
20260906140808 64 153 0.0 0.0 0.00 0.00 0.00 96 1021.2
20260906140303 63 86 0.0 0.9 0.00 0.00 0.00 97 1021.1
20260906135801 63 133 0.0 0.9 0.00 0.00 0.00 97 1021.2
20260906135256 64 153 0.0 0.0 0.00 0.00 0.00 97 1021.1
20260906134751 63 174 0.0 0.0 0.00 0.00 0.00 97 1021.2
20260906134247 62 164 0.9 1.7 0.00 0.00 0.00 98 1021.3
20260906133742 62 166 0.0 0.0 0.00 0.00 0.00 99 1021.3
20260906133238 62 215 0.9 0.9 0.00 0.00 0.00 98 1021.3
20260906132733 62 204 0.9 0.9 0.00 0.00 0.00 99 1021.3
20260906132228 61 104 0.0 0.9 0.00 0.00 0.00 99 1021.2
20260906131724 61 156 0.0 0.0 0.00 0.00 0.00 99 1021.2
20260906131219 60 180 0.9 1.7 0.00 0.00 0.00 99 1021.0
20260906130714 60 107 0.0 0.0 0.00 0.00 0.00 99 1021.1
20260906130208 60 147 1.7 2.6 0.00 0.00 0.00 99 1021.0
20260906125702 60 157 0.0 0.9 0.00 0.00 0.00 99 1021.2
20260906125200 59 149 0.0 0.0 0.00 0.00 0.00 99 1020.9
20260906124655 59 200 0.0 0.9 0.00 0.00 0.00 99 1020.8
20260906124151 59 158 0.0 0.0 0.00 0.00 0.00 99 1020.8
20260906123649 59 89 0.0 0.0 0.00 0.00 0.00 99 1021.0
20260906123145 59 154 0.0 0.0 0.00 0.00 0.00 99 1020.8
20260906122644 59 167 0.0 0.9 0.00 0.00 0.00 99 1020.9
20260906122140 59 153 0.0 0.0 0.00 0.00 0.00 99 1021.0
20260906121636 59 230 0.9 0.9 0.00 0.00 0.00 99 1020.9
20260906121132 59 246 3.5 4.3 0.00 0.00 0.00 99 1020.8
20260906120627 59 164 0.9 0.9 0.00 0.00 0.00 99 1020.8
20260906120125 59 162 0.0 0.9 0.00 0.00 0.00 99 1020.6
20260906115624 59 234 0.9 0.9 0.00 0.00 0.00 99 1020.4
20260906115120 59 130 0.0 0.9 0.00 0.00 0.00 99 1020.6
20260906114614 59 184 0.0 0.0 0.00 0.00 0.00 99 1020.5
20260906114109 59 195 0.9 1.7 0.00 0.00 0.00 99 1020.2
20260906113608 59 233 0.9 0.9 0.00 0.00 0.00 99 1020.6
20260906113103 59 87 0.9 1.7 0.00 0.00 0.00 99 1020.2
20260906112603 59 352 0.9 0.9 0.00 0.00 0.00 99 1020.4
20260906112059 59 218 1.7 1.7 0.00 0.00 0.00 99 1020.5
20260906111559 59 300 0.9 0.9 0.00 0.00 0.00 99 1020.6
20260906111055 59 126 0.0 0.9 0.00 0.00 0.00 99 1020.3
20260906110554 59 283 1.7 1.7 0.00 0.00 0.00 99 1020.3
20260906110054 59 240 0.9 2.6 0.00 0.00 0.00 99 1020.4
20260906105548 59 144 0.0 0.0 0.00 0.00 0.00 99 1020.4
20260906105045 59 312 1.7 2.6 0.00 0.00 0.00 99 1020.1
20260906104543 59 162 0.0 0.9 0.00 0.00 0.00 99 1020.2
20260906104038 59 234 0.0 0.9 0.00 0.00 0.00 99 1020.3
20260906103536 59 170 0.0 0.0 0.00 0.00 0.00 99 1020.2
20260906103032 59 187 0.9 0.9 0.00 0.00 0.00 99 1020.2
20260906102532 59 212 0.9 0.9 0.00 0.00 0.00 99 1020.2
20260906102027 59 287 0.0 0.9 0.00 0.00 0.00 99 1020.2
20260906101527 59 243 0.0 0.0 0.00 0.00 0.00 99 1020.3
20260906101021 59 188 0.9 0.9 0.00 0.00 0.00 99 1020.0
20260906100517 59 156 1.7 2.6 0.00 0.00 0.00 99 1019.9
20260906100012 59 170 0.9 4.3 0.00 0.00 0.00 99 1020.2
20260906095507 59 45 1.7 2.6 0.00 0.00 0.00 99 1020.1
20260906095002 59 156 0.0 0.9 0.00 0.00 0.00 99 1020.3
20260906094501 59 298 0.9 0.9 0.00 0.00 0.00 99 1020.2
20260906093957 58 183 0.0 0.0 0.00 0.00 0.00 99 1020.1
20260906093453 58 165 0.0 0.0 0.00 0.00 0.00 99 1020.1
20260906092948 57 259 1.7 1.7 0.00 0.00 0.00 99 1019.9
20260906092448 57 148 0.0 0.9 0.00 0.00 0.00 99 1020.3
20260906091942 57 204 0.0 0.0 0.00 0.00 0.00 99 1020.1
20260906091438 57 163 0.0 0.0 0.00 0.00 0.00 99 1020.1
20260906090934 58 179 0.0 0.0 0.00 0.00 0.00 99 1020.1
20260906090429 57 165 0.0 0.0 0.00 0.00 0.00 99 1020.0
20260906085924 57 172 0.0 0.0 0.00 0.00 0.00 99 1020.0
20260906085424 57 154 0.0 0.0 0.00 0.00 0.00 99 1020.2
20260906084923 57 153 0.0 0.9 0.00 0.00 0.00 99 1020.2
20260906084418 57 204 0.9 1.7 0.00 0.00 0.00 99 1020.2
20260906083917 58 178 0.0 0.9 0.00 0.00 0.00 99 1020.2
20260906083413 58 169 0.0 0.0 0.00 0.00 0.00 99 1020.3
20260906082912 58 136 0.0 0.0 0.00 0.00 0.00 99 1020.1
20260906082407 58 157 0.0 0.0 0.00 0.00 0.00 99 1020.3
20260906081903 58 144 0.0 0.0 0.00 0.00 0.00 99 1020.1
20260906081358 58 172 0.0 0.0 0.00 0.00 0.00 99 1020.0
20260906080854 58 142 0.0 0.0 0.00 0.00 0.00 99 1020.3
20260906080351 58 285 0.9 1.7 0.00 0.00 0.00 99 1020.1
20260906075849 58 150 0.0 0.0 0.00 0.00 0.00 99 1020.2
20260906075344 58 150 0.0 0.0 0.00 0.00 0.00 99 1020.0
20260906074840 58 350 0.9 0.9 0.00 0.00 0.00 99 1020.0
20260906074339 58 150 0.0 0.0 0.00 0.00 0.00 99 1020.1
20260906073838 58 135 0.0 0.0 0.00 0.00 0.00 99 1020.3
20260906073333 58 141 0.0 0.0 0.00 0.00 0.00 99 1020.1
20260906072830 58 159 0.0 0.0 0.00 0.00 0.00 99 1020.1
20260906072325 58 161 0.0 0.0 0.00 0.00 0.00 99 1020.3
20260906071821 58 160 0.0 0.0 0.00 0.00 0.00 99 1020.2
20260906071315 58 152 0.0 0.0 0.00 0.00 0.00 99 1020.3
20260906070813 59 156 0.0 0.0 0.00 0.00 0.00 99 1020.5
20260906070308 59 149 0.0 0.0 0.00 0.00 0.00 99 1020.4
20260906065807 59 155 0.0 0.0 0.00 0.00 0.00 99 1020.5
20260906065305 59 165 0.0 0.0 0.00 0.00 0.00 99 1020.5
20260906064758 59 180 0.0 0.0 0.00 0.00 0.00 99 1020.8
20260906064254 59 159 0.0 0.0 0.00 0.00 0.00 99 1020.3
20260906063749 59 135 0.0 0.0 0.00 0.00 0.00 99 1020.5
20260906063244 59 140 0.0 0.0 0.00 0.00 0.00 99 1020.1
20260906062739 59 163 0.0 0.0 0.00 0.00 0.00 99 1020.4
20260906062238 59 179 0.0 0.0 0.00 0.00 0.00 99 1020.1
20260906061734 59 167 0.0 0.0 0.00 0.00 0.00 99 1020.1
20260906061231 59 147 0.0 0.0 0.00 0.00 0.00 99 1019.9
20260906060726 59 161 0.0 0.9 0.00 0.00 0.00 99 1019.9
20260906060224 59 162 0.0 0.9 0.00 0.00 0.00 99 1019.7
20260906055719 59 204 0.9 0.9 0.00 0.00 0.00 99 1019.8
20260906055214 59 153 0.0 0.0 0.00 0.00 0.00 99 1019.8
20260906054710 59 174 0.0 0.0 0.00 0.00 0.00 99 1019.6
20260906054210 59 155 0.0 0.0 0.00 0.00 0.00 99 1019.7
20260906053707 59 157 0.0 0.0 0.00 0.00 0.00 99 1019.7
20260906053201 60 153 0.0 0.0 0.00 0.00 0.00 99 1019.6
20260906052656 60 163 0.0 0.0 0.00 0.00 0.00 99 1019.7
20260906052153 60 159 0.0 0.0 0.00 0.00 0.00 99 1019.5
20260906051650 59 149 0.0 0.0 0.00 0.00 0.00 99 1019.6
20260906051149 59 158 0.9 0.9 0.00 0.00 0.00 99 1019.6
20260906050644 59 135 0.0 0.0 0.00 0.00 0.00 99 1019.7
20260906050139 59 162 0.0 0.0 0.00 0.00 0.00 99 1019.8
20260906045638 60 165 0.0 0.9 0.00 0.00 0.00 99 1019.3
20260906045133 60 207 0.0 0.9 0.00 0.00 0.00 99 1019.4
20260906044629 60 192 0.0 0.9 0.00 0.00 0.00 99 1019.5
20260906044124 60 158 0.0 0.0 0.00 0.00 0.00 99 1019.5
20260906043621 60 183 0.9 0.9 0.00 0.00 0.00 99 1019.2
20260906043116 60 175 0.0 0.0 0.00 0.00 0.00 99 1019.3
20260906042615 60 157 0.0 0.0 0.00 0.00 0.00 99 1019.3
20260906042109 60 186 0.0 0.9 0.00 0.00 0.00 99 1019.4
20260906041606 60 184 0.0 0.0 0.00 0.00 0.00 99 1019.6
20260906041100 60 146 0.0 0.9 0.00 0.00 0.00 99 1019.8
20260906040556 60 158 0.0 0.9 0.00 0.00 0.00 99 1019.4
20260906040051 60 150 0.0 0.0 0.00 0.00 0.00 99 1019.4
20260906035546 60 146 0.0 0.0 0.00 0.00 0.00 99 1019.3
20260906035037 60 253 0.0 0.9 0.00 0.00 0.00 99 1019.3
20260906034536 60 163 0.0 0.0 0.00 0.00 0.00 99 1019.5
20260906034031 60 155 0.0 0.0 0.00 0.00 0.00 99 1019.5
20260906033526 60 219 0.0 0.9 0.00 0.00 0.00 99 1019.1
20260906033021 60 158 0.0 0.0 0.00 0.00 0.00 99 1019.4
20260906032518 60 145 0.0 0.0 0.00 0.00 0.00 99 1019.3
20260906032012 60 157 0.0 0.0 0.00 0.00 0.00 99 1019.2
20260906031508 60 168 0.0 0.0 0.00 0.00 0.00 99 1019.3
20260906031003 60 191 0.0 0.9 0.00 0.00 0.00 99 1019.2
20260906030457 60 178 0.0 0.9 0.00 0.00 0.00 99 1019.1
20260906025952 60 174 0.0 0.0 0.00 0.00 0.00 99 1019.2
20260906025451 60 153 0.0 0.0 0.00 0.00 0.00 99 1018.9
20260906024950 60 154 0.0 0.0 0.00 0.00 0.00 99 1018.9
20260906024445 60 176 0.0 0.0 0.00 0.00 0.00 99 1018.9
20260906023944 60 159 0.0 0.0 0.00 0.00 0.00 99 1019.0
20260906023441 60 162 0.0 0.0 0.00 0.00 0.00 99 1019.0
20260906022936 60 155 0.0 0.0 0.00 0.00 0.00 99 1019.0
20260906022432 60 147 0.0 0.0 0.00 0.00 0.00 99 1019.3
20260906021927 60 158 0.0 0.0 0.00 0.00 0.00 99 1018.9
20260906021426 60 160 0.0 0.0 0.00 0.00 0.00 99 1018.7
20260906020920 60 153 0.0 0.0 0.00 0.00 0.00 99 1018.8
20260906020415 60 191 0.0 0.0 0.00 0.00 0.00 99 1019.0
20260906015909 60 156 0.0 0.0 0.00 0.00 0.00 99 1019.2
20260906015409 60 159 0.0 0.0 0.00 0.00 0.00 99 1019.0
20260906014908 60 138 0.0 0.0 0.00 0.00 0.00 99 1019.0
20260906014403 60 128 0.0 0.0 0.00 0.00 0.00 99 1019.1
20260906013859 60 144 0.0 0.0 0.00 0.00 0.00 99 1019.0
20260906013355 61 179 0.0 0.0 0.00 0.00 0.00 99 1018.9
20260906012850 61 181 0.0 0.0 0.00 0.00 0.00 99 1018.8
20260906012345 61 166 0.0 0.0 0.00 0.00 0.00 99 1018.7
20260906011844 61 145 0.0 0.0 0.00 0.00 0.00 99 1018.7
20260906011339 61 158 0.0 0.0 0.00 0.00 0.00 99 1018.8
20260906010835 61 159 0.0 0.0 0.00 0.00 0.00 99 1018.9
20260906010331 61 149 0.0 0.0 0.00 0.00 0.00 99 1018.7
20260906005827 62 156 0.0 0.0 0.00 0.00 0.00 99 1018.4
20260906005325 62 169 0.0 0.0 0.00 0.00 0.00 99 1018.8
20260906004825 62 167 0.0 0.0 0.00 0.00 0.00 99 1018.7
20260906004324 62 148 0.0 0.0 0.00 0.00 0.00 99 1018.5
20260906003820 63 157 0.0 0.0 0.00 0.00 0.00 99 1018.6
20260906003315 63 160 0.0 0.0 0.00 0.00 0.00 99 1018.7
20260906002811 63 156 0.0 0.0 0.00 0.00 0.00 99 1018.8
20260906002309 63 154 0.0 0.0 0.00 0.00 0.00 99 1018.6
20260906001806 64 154 0.0 0.0 0.00 0.00 0.00 99 1018.7
20260906001301 64 152 0.0 0.0 0.00 0.00 0.00 99 1018.9
20260906000755 65 151 0.0 0.0 0.00 0.00 0.00 99 1018.8
20260906000250 65 151 0.0 0.0 0.00 0.00 0.00 99 1018.7
20260905235745 65 150 0.0 0.0 0.00 0.00 0.00 98 1018.7
20260905235244 66 149 0.0 0.0 0.00 0.00 0.00 98 1018.9
20260905234740 66 149 0.0 0.0 0.00 0.00 0.00 97 1018.6
20260905234235 66 149 0.0 0.0 0.00 0.00 0.00 96 1018.7
20260905233731 67 148 0.0 0.0 0.00 0.00 0.00 96 1018.9
20260905233230 67 138 0.0 0.0 0.00 0.00 0.00 95 1018.9
20260905232730 67 156 0.0 0.0 0.00 0.00 0.00 94 1018.7
20260905232226 67 152 0.0 0.0 0.00 0.00 0.00 93 1018.8
20260905231721 67 153 0.0 0.0 0.00 0.00 0.00 91 1018.7
20260905231217 68 156 0.0 0.0 0.00 0.00 0.00 91 1019.0
20260905230713 68 169 0.0 0.0 0.00 0.00 0.00 91 1018.8
20260905230210 68 152 0.0 0.0 0.00 0.00 0.00 90 1018.8
20260905225710 68 155 0.0 0.0 0.00 0.00 0.00 90 1018.9
20260905225206 68 163 0.0 0.0 0.00 0.00 0.00 90 1018.9
20260905224705 68 163 0.0 0.0 0.00 0.00 0.00 89 1019.1
20260905224200 69 190 0.0 0.9 0.00 0.00 0.00 88 1019.0
20260905223656 70 163 0.0 0.0 0.00 0.00 0.00 89 1019.3
20260905223153 70 157 0.0 0.0 0.00 0.00 0.00 86 1019.1
20260905222648 69 171 0.0 0.0 0.00 0.00 0.00 88 1019.0
20260905222148 70 173 0.0 0.0 0.00 0.00 0.00 87 1019.0
20260905221644 70 213 0.0 0.0 0.00 0.00 0.00 87 1018.9
20260905221141 70 166 0.0 0.0 0.00 0.00 0.00 88 1018.6
20260905220636 70 193 0.0 0.0 0.00 0.00 0.00 87 1018.5
20260905220132 70 170 0.0 0.0 0.00 0.00 0.00 89 1018.6
20260905215631 69 50 0.9 0.9 0.00 0.00 0.00 90 1018.7
20260905215127 69 170 0.9 0.9 0.00 0.00 0.00 90 1018.9
20260905214623 69 314 0.9 0.9 0.00 0.00 0.00 90 1018.8
20260905214118 69 238 0.9 0.9 0.00 0.00 0.00 91 1019.0
20260905213613 69 318 1.7 1.7 0.00 0.00 0.00 91 1019.0
20260905213108 69 258 0.9 1.7 0.00 0.00 0.00 92 1018.9
20260905212603 69 321 1.7 1.7 0.00 0.00 0.00 91 1018.4
20260905212103 70 270 1.7 1.7 0.00 0.00 0.00 89 1018.8
20260905211558 69 252 0.9 0.9 0.00 0.00 0.00 91 1018.6
20260905211053 69 22 3.5 4.3 0.00 0.00 0.00 92 1018.9
20260905210549 69 43 2.6 4.3 0.00 0.00 0.00 91 1018.9
20260905210044 69 176 0.9 0.9 0.00 0.00 0.00 93 1018.8
20260905205543 69 37 0.9 1.7 0.00 0.00 0.00 92 1019.1
20260905205043 69 309 0.9 1.7 0.00 0.00 0.00 92 1019.0
20260905204538 69 19 1.7 1.7 0.00 0.00 0.00 93 1019.3
20260905204033 69 0 2.6 2.6 0.00 0.00 0.00 92 1019.2
20260905203532 69 12 0.9 2.6 0.00 0.00 0.00 91 1019.0
20260905203028 69 163 1.7 2.6 0.00 0.00 0.00 92 1019.0
20260905202523 70 314 2.6 4.3 0.00 0.00 0.00 90 1019.4
20260905202019 69 39 3.5 5.2 0.00 0.00 0.00 90 1019.3
20260905201514 69 286 0.9 1.7 0.00 0.00 0.00 91 1019.4
20260905201014 70 232 2.6 2.6 0.00 0.00 0.00 89 1019.1
20260905200509 69 125 0.9 1.7 0.00 0.00 0.00 91 1019.4
20260905200009 70 12 1.7 1.7 0.00 0.00 0.00 89 1019.3
20260905195503 71 264 2.6 2.6 0.00 0.00 0.00 87 1019.0
20260905194958 72 343 1.7 1.7 0.00 0.00 0.00 84 1018.9
20260905194457 73 182 0.9 1.7 0.00 0.00 0.00 82 1018.8
20260905193952 72 212 1.7 2.6 0.00 0.00 0.00 82 1019.1
20260905193452 72 278 1.7 1.7 0.00 0.00 0.00 82 1018.8
20260905192947 72 100 0.9 1.7 0.00 0.00 0.00 82 1018.8
20260905192443 70 211 1.7 2.6 0.00 0.00 0.00 85 1018.8
20260905191938 70 305 1.7 2.6 0.00 0.00 0.00 86 1019.1